ONEWEB-0216 (48801 NORAD) Tracking and Keplerian Element Data

This shows tracking and keplerian element data for the satellite.

Feedback or suggestion? Click here.




ElementValue
Catalog48801
NameONEWEB-0216
Epoch Orbit351
Epoch Day214.91667824
Epoch Year2021
RAAN254.7861
Inclination87.5209
Eccentricity0.0009617
Argument of Perigee59.36
Mean Anonmoly182.0802
Mean Motion14.2417942
Decay Rate-0.01409055
L11 48801U 21045AL 21214.91667824 -.01409055 00000-0 -65278+0 0 9999
L22 48801 87.5209 254.7861 0009617 59.3600 182.0802 14.24179420 3517

Live tracking and technical data element details for ONEWEB-0216 (NORAD 48801). ONEWEB-0216 can be tracked NOW for your location showing map with azimuth and elevation plus other details from your city location.

Track the satellite on the map from your city or location and see movement details for azimuth, elevation, latitude, longitude, range, height, and movement on the map or in text.







IsCatalogInMostPopularTable: catalog: 48801, numindb: 19
Update: records affected: 1



GetName: 48801 ONEWEB-0216

Hit Count: updated at: Tue, 03 Aug 2021 20:02:13 GMT